Location: Unspecified
(0.0000°N, 0.0000°E)
Time: 14:46:53
(UTC+00:00)

Daily predictions for brighter satellites

Satellite Brightness Start Highest point End
(mag) Time Altitude Azimuth Time Altitude Azimuth Time Altitude Azimuth
Centaur D-1AR AC-39 3.2 18:11:35 10° SW 18:16:01 69° SSE 18:36:31 10° ENE
CZ-4 R/B 4.4 18:12:28 10° SSE 18:16:33 65° E 18:20:37 10° N
CORIOLIS 4.4 18:12:52 10° S 18:18:13 76° WSW 18:23:32 10° NNW
GPS 2-18 Rocket1 4.2 18:18:45 10° W 18:22:35 41° NNW 18:26:25 10° NE
Cosmos 1943 Rocket 2.7 18:17:43 10° N 18:22:49 36° ENE 18:27:58 10° SE
ARIANE 5 R/B 2.2 18:16:48 10° W 18:22:49 63° S 18:24:49 11° ESE
SPOT 3 Rocket 3.8 18:19:55 10° SSE 18:24:52 48° ENE 18:29:47 10° N
Cosmos 2058 Rocket 4.2 18:20:43 10° SSW 18:24:55 48° W 18:29:06 10° NNW
GPS 2-12 Rocket1 3.3 18:21:24 10° WSW 18:26:02 69° NNW 18:30:45 10° ENE
Cosmos 1805 4.0 18:22:48 10° SSE 18:26:15 29° E 18:29:39 10° NNE
Cosmos 2327 Rocket 4.5 18:20:57 10° S 18:27:05 63° E 18:33:07 10° NNE
NOSS 2-1 (E) 4.3 18:24:28 10° S 18:28:37 31° ESE 18:32:06 10° NE
ARIANE 3 DEB 4.4 18:24:47 10° WNW 18:28:41 43° N 18:36:25 12° ENE
Gbstr 26 Del rocket 4.4 18:26:56 10° WSW 18:30:39 38° NW 18:34:55 10° NNE
Thor Agena Rocket 4.1 18:25:53 10° N 18:30:57 64° WNW 18:35:59 10° SSW
Tiangong 2 2.0 18:28:55 10° NNW 18:31:47 30° NE 18:33:46 16° E
NOSS 3-3 (A) 3.9 18:28:19 10° S 18:34:10 56° ESE 18:40:00 10° NE
NOSS 3-3 (C) 3.9 18:28:26 10° S 18:34:16 55° ESE 18:40:04 10° NE
METEOR-M 4.1 18:30:11 10° SSE 18:35:31 71° ENE 18:40:50 10° N
FENGYUN 3A 4.2 18:31:08 10° SE 18:35:58 35° ENE 18:40:46 10° NNE
SEDSat Delta rocket 4.2 18:33:56 10° WSW 18:39:11 57° NNW 18:45:13 10° NE
Cosmos 1898 Rocket 3.4 18:34:49 10° N 18:39:56 68° ENE 18:45:06 10° SSE
BLOCK DM-SL R/B 2.4 18:23:42 10° W 18:40:07 86° S 18:42:36 20° E
Cosmos 1953 Rocket 3.4 18:36:48 10° N 18:41:05 75° E 18:45:26 10° S
USA 229 DEB 4.3 18:35:16 10° N 18:41:56 38° ENE 18:48:37 10° SE
USA 229 4.3 18:35:23 10° N 18:42:01 37° ENE 18:48:41 10° SE
Palapa 6 Rocket 3.3 18:37:52 10° SW 18:42:58 57° SSE 18:45:41 21° E
ARIANE 5 DEB (SYLDA) 4.5 18:40:06 10° W 18:45:10 78° S 19:01:25 20° E
Shenzhou-11 Module 3.0 18:43:54 10° WNW 18:46:50 45° SW 18:49:30 12° SSE
Lacrosse 4 Rocket 1.8 18:42:39 10° S 18:46:51 44° ESE 18:51:05 10° NE
Meteor 1-24 Rocket 4.5 18:42:06 10° NNE 18:46:52 28° E 18:51:29 10° SE
ATLAS 2A CENTAUR R/B 1.3 18:46:09 10° SW 18:48:36 54° SE 18:51:42 22° ENE
OAO 2 Rocket 4.3 18:43:57 10° NNW 18:48:37 31° NE 18:50:52 22° ENE
Cosmos 1340 Rocket 3.4 18:49:43 10° NNW 18:53:44 60° W 18:57:45 10° S
GPS 2-14 Rocket1 4.3 18:51:16 10° SSW 18:54:34 22° SSE 18:55:46 20° SE
Ariane 42P Rocket 3.9 18:34:05 10° W 18:59:39 86° S 19:02:26 29° E
Ariane H10 2.6 18:58:07 10° WSW 19:00:44 38° S 19:01:22 32° SE
ARIANE 5 DEB (SYLDA) 3.6 19:02:53 10° W 19:03:39 21° WNW 19:03:39 21° WNW
H-10 deb 4.4 19:02:28 10° WSW 19:07:40 58° S 19:22:24 25° ESE
H-10 deb 4.4 19:02:28 10° WSW 19:07:40 58° S 19:22:26 24° ESE
ARIANE 5 DEB (SYLDA) 3.7 19:04:27 10° W 19:07:45 56° NNW 19:07:45 56° NNW
Tiangong 1 1.9 19:05:17 10° SW 19:07:03 34° SSW 19:07:03 34° SSW
Sea Lan Dem Rocket 4.0 19:03:49 10° W 19:08:56 83° S 19:20:46 27° E
Sea Lan Dem Rocket 4.0 19:03:50 10° W 19:08:56 83° S 19:20:47 27° E
ARIANE 5 DEB (SYLDA) 3.6 19:08:00 10° WNW 19:09:23 24° NNW 19:09:23 24° NNW
Cosmos 1953 2.1 19:06:10 10° S 19:10:09 71° E 19:14:09 10° N
Cosmos 909 Rocket 4.1 19:04:11 10° N 19:10:45 55° ENE 19:15:06 19° SE
Cosmos 2150 Rocket 4.0 19:07:11 10° NNW 19:12:37 88° W 19:18:06 10° SSE
Lacrosse 5 2.9 19:08:06 10° NW 19:12:54 44° WSW 19:17:44 10° SSE
Cosmos 2154 Rocket 4.0 19:08:29 10° S 19:14:41 83° W 19:20:54 10° N
Cosmos 1833 Rocket 2.5 19:10:33 10° SSW 19:16:12 81° ESE 19:21:45 10° NNE
Cosmos 1937 Rocket 3.9 19:13:11 10° NNW 19:18:20 64° WSW 19:23:28 10° S
Cosmos 2369 Rocket 4.4 19:15:18 10° NW 19:19:48 25° WSW 19:24:17 10° SSW
FengYun 1-2 T 4.2 19:15:30 10° SSE 19:21:05 62° ENE 19:26:36 10° N
Cosmos 1538 Rocket 4.1 19:19:09 10° SSW 19:24:30 77° WNW 19:29:48 10° N
Ariane H10+ 3.9 19:24:00 10° WNW 19:24:39 18° WNW 19:24:39 18° WNW
GEOS 3 Rocket 4.2 19:22:54 10° NNE 19:28:09 58° WNW 19:33:20 10° SW
USA 234 3.9 19:29:16 34° NE 19:29:16 34° NE 19:34:24 10° N
In-Cosmos 22 4.1 19:23:40 10° N 19:29:23 68° E 19:35:05 10° SSE
Cosmos 2341 Rocket 3.9 19:23:21 10° S 19:29:36 89° E 19:35:47 10° N
ALOS 3.7 19:28:18 10° S 19:32:37 37° WSW 19:36:53 10° NW
Meteor 2-21 4.3 19:27:36 10° S 19:33:44 64° E 19:34:33 58° ENE
Ariane H10+ 3.0 19:30:21 10° W 19:33:57 49° W 19:33:57 49° W
ARIANE 5 R/B 1.9 19:30:46 10° W 19:40:23 70° WNW 19:40:23 70° WNW
Cosmos 2082 Rocket 2.9 19:36:24 10° SSW 19:41:50 51° WNW 19:47:09 11° N
Spelda 4.3 19:45:44 10° WSW 19:50:14 62° S 19:52:21 50° ESE
Atlas Centaur 2 3.7 19:50:18 10° SW 19:56:16 38° SSE 19:56:16 38° SSE
GOES 2 Rocket 4.5 19:48:41 10° WSW 19:58:39 86° SSE 19:59:25 77° ENE
ARIANE DEB (SYLDA) 3.8 19:57:42 10° W 20:12:15 53° NNW 20:12:15 53° NNW
ARIANE 5 R/B 4.5 20:09:54 10° W 20:09:57 11° W 20:09:57 11° W
USA 215 4.3 20:23:37 38° SW 20:23:37 38° SW 20:27:22 10° SW
